Regional Weather Roundup
Issued by NWS

Home | Current Version | Previous Version | Graphics & Text | Print | Product List | Glossary On
Versions: 1 2 3 4 5 6 7 8 9 10 11 12 13 14 15 16 17 18 19 20 21 22 23 24 25 26 27 28 29 30 31 32 33 34 35 36 37 38 39 40 41 42 43 44 45 46 47 48 49 50
000
ASUS43 KOAX 230302
RWRNE

WEATHER ROUNDUP FOR NEBRASKA
NATIONAL WEATHER SERVICE OMAHA NE
1000 PM CDT SUN APR 22 2018

NOTES: SATELLITE DATA IS BEING USED TO AUGMENT CLOUD COVER ABOVE
       12000 FEET.
       "FAIR" INDICATES FEW OR NO CLOUDS BELOW 12,000 FEET WITH NO
       SIGNIFICANT WEATHER AND/OR OBSTRUCTIONS TO VISIBILITY.


NEZ001>004-019>022-054>056-230400-
NEBRASKA PANHANDLE

CITY           SKY/WX    TMP DP  RH WIND       PRES   REMARKS
SCOTTSBLUFF    CLEAR     49  43  80 SE12      30.11R
ALLIANCE       CLEAR     45  40  82 SE13      30.12R
CHADRON        CLEAR     48  40  73 SE5       30.08R
GORDON         FAIR      48  39  69 S7        30.12R
SIDNEY         CLEAR     40  31  70 SE8       30.15R WCI  34
$$

NEZ057>060-069>072-079>082-230400-
SOUTHWEST NEBRASKA

CITY           SKY/WX    TMP DP  RH WIND       PRES   REMARKS
NORTH PLATTE   CLOUDY    51  42  71 SE7       30.18R
IMPERIAL       CLEAR     46  38  73 CALM      30.16R
LEXINGTON      CLEAR     47  41  81 CALM      30.18R
MCCOOK         PTCLDY    49  38  65 E5        30.17R
OGALLALA       CLEAR     46  38  75 CALM      30.17R
$$

NEZ005>010-023>029-035>040-094-230400-
NORTH CENTRAL NEBRASKA

CITY           SKY/WX    TMP DP  RH WIND       PRES   REMARKS
VALENTINE      CLEAR     51  39  63 S9        30.15R
AINSWORTH      CLEAR     46  39  76 S6        30.17R
BROKEN BOW     CLEAR     41  35  79 N3        30.17R
O`NEILL        CLEAR     55  35  46 E6        30.18R
ORD            CLEAR     45  36  70 CALM      30.16R
THEDFORD       CLEAR     49  38  66 S8        30.18R
$$

NEZ041-046>049-061>064-073>077-083>087-230400-
SOUTH CENTRAL NEBRASKA

CITY           SKY/WX    TMP DP  RH WIND       PRES   REMARKS
GRAND ISLAND   CLOUDY    56  39  53 S3        30.18R
AURORA         CLOUDY    56  36  47 CALM      30.17R
HASTINGS       CLOUDY    56  38  50 SE3       30.17R
HEBRON         CLOUDY    55  42  60 CALM      30.15R
HOLDREGE       PTCLDY    51  42  71 CALM      30.17R
KEARNEY        CLOUDY    52  40  63 S5        30.18R
YORK             N/A     57  36  44 CALM      30.17R
$$

NEZ011>018-030>034-042>045-230400-
NORTHEAST NEBRASKA

CITY           SKY/WX    TMP DP  RH WIND       PRES   REMARKS
NORFOLK        CLOUDY    52  34  50 CALM      30.17R
ALBION         CLOUDY    53  40  61 CALM      30.18R
BLAIR          CLEAR     58  31  35 NE8       30.17R
COLUMBUS       CLOUDY    53  37  54 NE6       30.18R
FREMONT        CLOUDY    59  32  35 E6        30.17S
TEKAMAH        CLEAR     51  29  42 NE6       30.18R
WAYNE          CLEAR     51  37  59 E10       30.19R
$$

NEZ050>053-065>068-078-088>093-230400-
SOUTHEAST NEBRASKA

CITY           SKY/WX    TMP DP  RH WIND       PRES   REMARKS
LINCOLN        CLOUDY    57  36  45 NE9       30.17R
OMAHA EPPLEY   PTCLDY    59  29  31 E8        30.17R
BEATRICE       CLEAR     56  36  46 NE7       30.15R
FALLS CITY     MOCLDY    57  37  47 E8        30.13R
NEBRASKA CITY  CLEAR     57  33  40 NE5       30.15R
PLATTSMOUTH    CLEAR     57  30  36 NE7       30.16R
$$

NEZ044-045-051>053-067-230400-
OMAHA AREA

CITY           SKY/WX    TMP DP  RH WIND       PRES   REMARKS
OMAHA EPPLEY   PTCLDY    59  29  31 E8        30.17R
BLAIR          CLEAR     58  31  35 NE8       30.17R
FREMONT        CLOUDY    59  32  35 E6        30.17S
MILLARD        CLOUDY    61  33  35 NE3       30.16R
PLATTSMOUTH    CLEAR     57  30  36 NE7       30.16R
WAHOO          MOCLDY    56  29  35 E9        30.16S
$$



USA.gov is the U.S. government's official web portal to all federal, state and local government web resources and services.